<?xml version="1.0" encoding="UTF-8" standalone="no" ?>
<gpx xmlns="http://www.topografix.com/GPX/1/1" xmlns:xsi="http://www.w3.org/2001/XMLSchema-instance" xsi:schemaLocation="http://www.topografix.com/GPX/1/1 http://www.topografix.com/GPX/1/1/gpx.xsd" version="1.1" creator="VisuGPX - https://www.visugpx.com">
  <metadata>
    <name>Corbas</name>
    <desc><![CDATA[Corbas en VTT]]></desc>
  </metadata>
  <trk>
    <name><![CDATA[(c) UtagawaVTT.com]]></name>
    <desc><![CDATA[]]></desc>
    <trkseg>
      <trkpt lat="45.31332" lon="4.31803">
        <ele>910.6</ele>
        <time>2012-04-09T09:16:39.486Z</time>
      </trkpt>
      <trkpt lat="45.31296" lon="4.3183">
        <ele>911.8</ele>
        <time>2012-04-09T09:16:40.571Z</time>
      </trkpt>
      <trkpt lat="45.31298" lon="4.31942">
        <ele>915.6</ele>
        <time>2012-04-09T09:16:40.571Z</time>
      </trkpt>
      <trkpt lat="45.31263" lon="4.32023">
        <ele>919.4</ele>
        <time>2012-04-09T09:16:40.571Z</time>
      </trkpt>
      <trkpt lat="45.3126" lon="4.32058">
        <ele>921.1</ele>
        <time>2012-04-09T09:16:40.571Z</time>
      </trkpt>
      <trkpt lat="45.31271" lon="4.32212">
        <ele>927.6</ele>
        <time>2012-04-09T09:16:40.571Z</time>
      </trkpt>
      <trkpt lat="45.31275" lon="4.32346">
        <ele>928.2</ele>
        <time>2012-04-09T09:16:40.571Z</time>
      </trkpt>
      <trkpt lat="45.31284" lon="4.32458">
        <ele>924.8</ele>
        <time>2012-04-09T09:16:40.571Z</time>
      </trkpt>
      <trkpt lat="45.31304" lon="4.32522">
        <ele>922.5</ele>
        <time>2012-04-09T09:16:40.571Z</time>
      </trkpt>
      <trkpt lat="45.31262" lon="4.32604">
        <ele>917.6</ele>
        <time>2012-04-09T09:16:40.572Z</time>
      </trkpt>
      <trkpt lat="45.31227" lon="4.32647">
        <ele>913.4</ele>
        <time>2012-04-09T09:16:40.572Z</time>
      </trkpt>
      <trkpt lat="45.31203" lon="4.32726">
        <ele>909.6</ele>
        <time>2012-04-09T09:16:40.572Z</time>
      </trkpt>
      <trkpt lat="45.31236" lon="4.32749">
        <ele>908.6</ele>
        <time>2012-04-09T09:16:40.572Z</time>
      </trkpt>
      <trkpt lat="45.31245" lon="4.32775">
        <ele>907.4</ele>
        <time>2012-04-09T09:16:40.572Z</time>
      </trkpt>
      <trkpt lat="45.31301" lon="4.32777">
        <ele>908.5</ele>
        <time>2012-04-09T09:16:40.572Z</time>
      </trkpt>
      <trkpt lat="45.31342" lon="4.32779">
        <ele>911.2</ele>
        <time>2012-04-09T09:16:40.572Z</time>
      </trkpt>
      <trkpt lat="45.3138" lon="4.32799">
        <ele>914</ele>
        <time>2012-04-09T09:16:40.572Z</time>
      </trkpt>
      <trkpt lat="45.3139" lon="4.32854">
        <ele>913.1</ele>
        <time>2012-04-09T09:16:40.572Z</time>
      </trkpt>
      <trkpt lat="45.31352" lon="4.32967">
        <ele>901.7</ele>
        <time>2012-04-09T09:16:40.572Z</time>
      </trkpt>
      <trkpt lat="45.31336" lon="4.331">
        <ele>893.5</ele>
        <time>2012-04-09T09:16:40.572Z</time>
      </trkpt>
      <trkpt lat="45.31349" lon="4.33149">
        <ele>889.2</ele>
        <time>2012-04-09T09:16:40.572Z</time>
      </trkpt>
      <trkpt lat="45.31382" lon="4.3316">
        <ele>889.2</ele>
        <time>2012-04-09T09:16:40.572Z</time>
      </trkpt>
      <trkpt lat="45.31456" lon="4.33191">
        <ele>885.4</ele>
        <time>2012-04-09T09:16:40.572Z</time>
      </trkpt>
      <trkpt lat="45.31476" lon="4.33182">
        <ele>887.4</ele>
        <time>2012-04-09T09:16:40.572Z</time>
      </trkpt>
      <trkpt lat="45.31541" lon="4.33203">
        <ele>888.5</ele>
        <time>2012-04-09T09:16:40.572Z</time>
      </trkpt>
      <trkpt lat="45.31581" lon="4.33211">
        <ele>888.9</ele>
        <time>2012-04-09T09:16:40.572Z</time>
      </trkpt>
      <trkpt lat="45.31617" lon="4.33219">
        <ele>889.5</ele>
        <time>2012-04-09T09:16:40.572Z</time>
      </trkpt>
      <trkpt lat="45.31637" lon="4.33242">
        <ele>890.2</ele>
        <time>2012-04-09T09:16:40.572Z</time>
      </trkpt>
      <trkpt lat="45.31652" lon="4.3329">
        <ele>891.1</ele>
        <time>2012-04-09T09:16:40.572Z</time>
      </trkpt>
      <trkpt lat="45.31677" lon="4.33387">
        <ele>893.4</ele>
        <time>2012-04-09T09:16:40.572Z</time>
      </trkpt>
      <trkpt lat="45.31726" lon="4.3328">
        <ele>896.7</ele>
        <time>2012-04-09T09:16:40.572Z</time>
      </trkpt>
      <trkpt lat="45.31759" lon="4.3324">
        <ele>899</ele>
        <time>2012-04-09T09:16:40.572Z</time>
      </trkpt>
      <trkpt lat="45.31784" lon="4.33222">
        <ele>900.7</ele>
        <time>2012-04-09T09:16:40.572Z</time>
      </trkpt>
      <trkpt lat="45.31827" lon="4.33176">
        <ele>901.6</ele>
        <time>2012-04-09T09:16:40.572Z</time>
      </trkpt>
      <trkpt lat="45.31845" lon="4.3317">
        <ele>901.7</ele>
        <time>2012-04-09T09:16:40.572Z</time>
      </trkpt>
      <trkpt lat="45.31873" lon="4.3327">
        <ele>900.7</ele>
        <time>2012-04-09T09:16:40.572Z</time>
      </trkpt>
      <trkpt lat="45.31932" lon="4.33361">
        <ele>901.8</ele>
        <time>2012-04-09T09:16:40.572Z</time>
      </trkpt>
      <trkpt lat="45.31984" lon="4.33446">
        <ele>904.6</ele>
        <time>2012-04-09T09:16:40.572Z</time>
      </trkpt>
      <trkpt lat="45.32018" lon="4.33552">
        <ele>904.7</ele>
        <time>2012-04-09T09:16:40.572Z</time>
      </trkpt>
      <trkpt lat="45.32069" lon="4.3364">
        <ele>907.1</ele>
        <time>2012-04-09T09:16:40.572Z</time>
      </trkpt>
      <trkpt lat="45.32101" lon="4.33708">
        <ele>909.8</ele>
        <time>2012-04-09T09:16:40.572Z</time>
      </trkpt>
      <trkpt lat="45.32132" lon="4.33767">
        <ele>911.8</ele>
        <time>2012-04-09T09:16:40.572Z</time>
      </trkpt>
      <trkpt lat="45.3217" lon="4.33765">
        <ele>912.2</ele>
        <time>2012-04-09T09:16:40.573Z</time>
      </trkpt>
      <trkpt lat="45.32251" lon="4.33755">
        <ele>911.1</ele>
        <time>2012-04-09T09:16:40.573Z</time>
      </trkpt>
      <trkpt lat="45.3233" lon="4.33768">
        <ele>912.3</ele>
        <time>2012-04-09T09:16:40.573Z</time>
      </trkpt>
      <trkpt lat="45.32402" lon="4.33738">
        <ele>910.4</ele>
        <time>2012-04-09T09:16:40.573Z</time>
      </trkpt>
      <trkpt lat="45.32448" lon="4.33705">
        <ele>909.1</ele>
        <time>2012-04-09T09:16:40.573Z</time>
      </trkpt>
      <trkpt lat="45.32495" lon="4.33691">
        <ele>907.9</ele>
        <time>2012-04-09T09:16:40.573Z</time>
      </trkpt>
      <trkpt lat="45.32533" lon="4.33692">
        <ele>907.1</ele>
        <time>2012-04-09T09:16:40.573Z</time>
      </trkpt>
      <trkpt lat="45.3257" lon="4.33668">
        <ele>906.2</ele>
        <time>2012-04-09T09:16:40.573Z</time>
      </trkpt>
      <trkpt lat="45.3261" lon="4.33548">
        <ele>902.7</ele>
        <time>2012-04-09T09:16:40.573Z</time>
      </trkpt>
      <trkpt lat="45.32622" lon="4.3351">
        <ele>901.6</ele>
        <time>2012-04-09T09:16:40.573Z</time>
      </trkpt>
      <trkpt lat="45.32655" lon="4.33585">
        <ele>900</ele>
        <time>2012-04-09T09:16:40.573Z</time>
      </trkpt>
      <trkpt lat="45.32658" lon="4.33671">
        <ele>899.6</ele>
        <time>2012-04-09T09:16:40.573Z</time>
      </trkpt>
      <trkpt lat="45.32649" lon="4.33763">
        <ele>897.6</ele>
        <time>2012-04-09T09:16:40.573Z</time>
      </trkpt>
      <trkpt lat="45.32623" lon="4.33864">
        <ele>895</ele>
        <time>2012-04-09T09:16:40.573Z</time>
      </trkpt>
      <trkpt lat="45.32617" lon="4.33909">
        <ele>893.5</ele>
        <time>2012-04-09T09:16:40.573Z</time>
      </trkpt>
      <trkpt lat="45.32672" lon="4.33965">
        <ele>890.1</ele>
        <time>2012-04-09T09:16:40.573Z</time>
      </trkpt>
      <trkpt lat="45.32649" lon="4.34041">
        <ele>891.5</ele>
        <time>2012-04-09T09:16:40.573Z</time>
      </trkpt>
      <trkpt lat="45.32617" lon="4.3418">
        <ele>895.1</ele>
        <time>2012-04-09T09:16:40.573Z</time>
      </trkpt>
      <trkpt lat="45.32592" lon="4.34284">
        <ele>897.6</ele>
        <time>2012-04-09T09:16:40.573Z</time>
      </trkpt>
      <trkpt lat="45.32569" lon="4.34363">
        <ele>898</ele>
        <time>2012-04-09T09:16:40.573Z</time>
      </trkpt>
      <trkpt lat="45.32538" lon="4.34435">
        <ele>898.4</ele>
        <time>2012-04-09T09:16:40.573Z</time>
      </trkpt>
      <trkpt lat="45.32564" lon="4.34487">
        <ele>899</ele>
        <time>2012-04-09T09:16:40.573Z</time>
      </trkpt>
      <trkpt lat="45.32597" lon="4.34533">
        <ele>900.6</ele>
        <time>2012-04-09T09:16:40.573Z</time>
      </trkpt>
      <trkpt lat="45.32584" lon="4.34657">
        <ele>901.5</ele>
        <time>2012-04-09T09:16:40.573Z</time>
      </trkpt>
      <trkpt lat="45.32598" lon="4.34734">
        <ele>901.2</ele>
        <time>2012-04-09T09:16:40.573Z</time>
      </trkpt>
      <trkpt lat="45.32608" lon="4.34894">
        <ele>901.8</ele>
        <time>2012-04-09T09:16:40.573Z</time>
      </trkpt>
      <trkpt lat="45.32625" lon="4.34955">
        <ele>902.2</ele>
        <time>2012-04-09T09:16:40.573Z</time>
      </trkpt>
      <trkpt lat="45.32629" lon="4.35013">
        <ele>902</ele>
        <time>2012-04-09T09:16:40.573Z</time>
      </trkpt>
      <trkpt lat="45.32657" lon="4.35084">
        <ele>903.2</ele>
        <time>2012-04-09T09:16:40.573Z</time>
      </trkpt>
      <trkpt lat="45.32689" lon="4.35177">
        <ele>906.7</ele>
        <time>2012-04-09T09:16:40.573Z</time>
      </trkpt>
      <trkpt lat="45.32723" lon="4.35265">
        <ele>911</ele>
        <time>2012-04-09T09:16:40.573Z</time>
      </trkpt>
      <trkpt lat="45.32784" lon="4.35376">
        <ele>912.9</ele>
        <time>2012-04-09T09:16:40.573Z</time>
      </trkpt>
      <trkpt lat="45.32834" lon="4.35467">
        <ele>914.5</ele>
        <time>2012-04-09T09:16:40.573Z</time>
      </trkpt>
      <trkpt lat="45.32867" lon="4.35528">
        <ele>916.3</ele>
        <time>2012-04-09T09:16:40.573Z</time>
      </trkpt>
      <trkpt lat="45.32901" lon="4.35625">
        <ele>912.6</ele>
        <time>2012-04-09T09:16:40.573Z</time>
      </trkpt>
      <trkpt lat="45.32966" lon="4.35644">
        <ele>909.2</ele>
        <time>2012-04-09T09:16:40.573Z</time>
      </trkpt>
      <trkpt lat="45.33002" lon="4.35629">
        <ele>910.2</ele>
        <time>2012-04-09T09:16:40.573Z</time>
      </trkpt>
      <trkpt lat="45.33033" lon="4.35665">
        <ele>907</ele>
        <time>2012-04-09T09:16:40.573Z</time>
      </trkpt>
      <trkpt lat="45.33064" lon="4.35727">
        <ele>903.9</ele>
        <time>2012-04-09T09:16:40.573Z</time>
      </trkpt>
      <trkpt lat="45.3309" lon="4.35792">
        <ele>900.6</ele>
        <time>2012-04-09T09:16:40.573Z</time>
      </trkpt>
      <trkpt lat="45.33098" lon="4.35827">
        <ele>898.1</ele>
        <time>2012-04-09T09:16:40.573Z</time>
      </trkpt>
      <trkpt lat="45.33101" lon="4.35897">
        <ele>896.7</ele>
        <time>2012-04-09T09:16:40.573Z</time>
      </trkpt>
      <trkpt lat="45.33098" lon="4.35945">
        <ele>897.3</ele>
        <time>2012-04-09T09:16:40.573Z</time>
      </trkpt>
      <trkpt lat="45.33076" lon="4.36014">
        <ele>900.5</ele>
        <time>2012-04-09T09:16:40.573Z</time>
      </trkpt>
      <trkpt lat="45.33148" lon="4.36023">
        <ele>902.3</ele>
        <time>2012-04-09T09:16:40.573Z</time>
      </trkpt>
      <trkpt lat="45.33214" lon="4.36019">
        <ele>904.6</ele>
        <time>2012-04-09T09:16:40.573Z</time>
      </trkpt>
      <trkpt lat="45.3328" lon="4.3606">
        <ele>907.3</ele>
        <time>2012-04-09T09:16:40.573Z</time>
      </trkpt>
      <trkpt lat="45.33365" lon="4.36102">
        <ele>912.3</ele>
        <time>2012-04-09T09:16:40.573Z</time>
      </trkpt>
      <trkpt lat="45.33383" lon="4.36089">
        <ele>913.2</ele>
        <time>2012-04-09T09:16:40.573Z</time>
      </trkpt>
      <trkpt lat="45.33446" lon="4.36088">
        <ele>917</ele>
        <time>2012-04-09T09:16:40.574Z</time>
      </trkpt>
      <trkpt lat="45.33498" lon="4.36068">
        <ele>921.4</ele>
        <time>2012-04-09T09:16:40.574Z</time>
      </trkpt>
      <trkpt lat="45.33562" lon="4.36042">
        <ele>925.5</ele>
        <time>2012-04-09T09:16:40.574Z</time>
      </trkpt>
      <trkpt lat="45.33598" lon="4.36059">
        <ele>927.1</ele>
        <time>2012-04-09T09:16:40.574Z</time>
      </trkpt>
      <trkpt lat="45.33637" lon="4.36108">
        <ele>926.6</ele>
        <time>2012-04-09T09:16:40.574Z</time>
      </trkpt>
      <trkpt lat="45.33688" lon="4.36158">
        <ele>925.1</ele>
        <time>2012-04-09T09:16:40.574Z</time>
      </trkpt>
      <trkpt lat="45.33712" lon="4.36191">
        <ele>924.6</ele>
        <time>2012-04-09T09:16:40.574Z</time>
      </trkpt>
      <trkpt lat="45.33734" lon="4.36233">
        <ele>925</ele>
        <time>2012-04-09T09:16:40.574Z</time>
      </trkpt>
      <trkpt lat="45.33759" lon="4.36228">
        <ele>926</ele>
        <time>2012-04-09T09:16:40.574Z</time>
      </trkpt>
      <trkpt lat="45.33869" lon="4.36216">
        <ele>929.4</ele>
        <time>2012-04-09T09:16:40.574Z</time>
      </trkpt>
      <trkpt lat="45.33932" lon="4.36221">
        <ele>929.3</ele>
        <time>2012-04-09T09:16:40.574Z</time>
      </trkpt>
      <trkpt lat="45.34001" lon="4.36243">
        <ele>929.2</ele>
        <time>2012-04-09T09:16:40.574Z</time>
      </trkpt>
      <trkpt lat="45.34068" lon="4.36277">
        <ele>927.3</ele>
        <time>2012-04-09T09:16:40.574Z</time>
      </trkpt>
      <trkpt lat="45.34133" lon="4.36302">
        <ele>927.5</ele>
        <time>2012-04-09T09:16:40.574Z</time>
      </trkpt>
      <trkpt lat="45.34171" lon="4.36329">
        <ele>927.7</ele>
        <time>2012-04-09T09:16:40.574Z</time>
      </trkpt>
      <trkpt lat="45.34208" lon="4.36378">
        <ele>927.9</ele>
        <time>2012-04-09T09:16:40.574Z</time>
      </trkpt>
      <trkpt lat="45.34305" lon="4.36391">
        <ele>923.7</ele>
        <time>2012-04-09T09:16:40.574Z</time>
      </trkpt>
      <trkpt lat="45.34368" lon="4.36387">
        <ele>922.1</ele>
        <time>2012-04-09T09:16:40.574Z</time>
      </trkpt>
      <trkpt lat="45.34422" lon="4.36354">
        <ele>923.2</ele>
        <time>2012-04-09T09:16:40.574Z</time>
      </trkpt>
      <trkpt lat="45.34538" lon="4.36301">
        <ele>929.8</ele>
        <time>2012-04-09T09:16:40.574Z</time>
      </trkpt>
      <trkpt lat="45.34629" lon="4.36243">
        <ele>928.2</ele>
        <time>2012-04-09T09:16:40.574Z</time>
      </trkpt>
      <trkpt lat="45.3472" lon="4.3617">
        <ele>922.8</ele>
        <time>2012-04-09T09:16:40.574Z</time>
      </trkpt>
      <trkpt lat="45.3478" lon="4.36108">
        <ele>916.7</ele>
        <time>2012-04-09T09:16:40.574Z</time>
      </trkpt>
      <trkpt lat="45.34876" lon="4.36039">
        <ele>908.5</ele>
        <time>2012-04-09T09:16:40.574Z</time>
      </trkpt>
      <trkpt lat="45.3494" lon="4.35993">
        <ele>906.7</ele>
        <time>2012-04-09T09:16:40.574Z</time>
      </trkpt>
      <trkpt lat="45.35031" lon="4.35933">
        <ele>908.7</ele>
        <time>2012-04-09T09:16:40.574Z</time>
      </trkpt>
      <trkpt lat="45.35081" lon="4.35877">
        <ele>910.5</ele>
        <time>2012-04-09T09:16:40.574Z</time>
      </trkpt>
      <trkpt lat="45.3512" lon="4.35818">
        <ele>910.6</ele>
        <time>2012-04-09T09:16:40.574Z</time>
      </trkpt>
      <trkpt lat="45.3514" lon="4.35739">
        <ele>909.4</ele>
        <time>2012-04-09T09:16:40.574Z</time>
      </trkpt>
      <trkpt lat="45.35193" lon="4.35664">
        <ele>908.3</ele>
        <time>2012-04-09T09:16:40.574Z</time>
      </trkpt>
      <trkpt lat="45.35239" lon="4.35599">
        <ele>908.8</ele>
        <time>2012-04-09T09:16:40.574Z</time>
      </trkpt>
      <trkpt lat="45.35271" lon="4.35558">
        <ele>909.3</ele>
        <time>2012-04-09T09:16:40.574Z</time>
      </trkpt>
      <trkpt lat="45.3534" lon="4.35491">
        <ele>912.3</ele>
        <time>2012-04-09T09:16:40.574Z</time>
      </trkpt>
      <trkpt lat="45.35388" lon="4.35432">
        <ele>913.9</ele>
        <time>2012-04-09T09:16:40.574Z</time>
      </trkpt>
      <trkpt lat="45.35457" lon="4.35374">
        <ele>914.9</ele>
        <time>2012-04-09T09:16:40.574Z</time>
      </trkpt>
      <trkpt lat="45.35562" lon="4.35272">
        <ele>923.1</ele>
        <time>2012-04-09T09:16:40.574Z</time>
      </trkpt>
      <trkpt lat="45.35589" lon="4.3527">
        <ele>923.1</ele>
        <time>2012-04-09T09:16:40.574Z</time>
      </trkpt>
      <trkpt lat="45.3566" lon="4.35202">
        <ele>921</ele>
        <time>2012-04-09T09:16:40.574Z</time>
      </trkpt>
      <trkpt lat="45.3575" lon="4.35126">
        <ele>913.1</ele>
        <time>2012-04-09T09:16:40.574Z</time>
      </trkpt>
      <trkpt lat="45.35782" lon="4.35082">
        <ele>909.1</ele>
        <time>2012-04-09T09:16:40.574Z</time>
      </trkpt>
      <trkpt lat="45.3572" lon="4.34984">
        <ele>904.5</ele>
        <time>2012-04-09T09:16:40.574Z</time>
      </trkpt>
      <trkpt lat="45.35701" lon="4.34926">
        <ele>901.6</ele>
        <time>2012-04-09T09:16:40.574Z</time>
      </trkpt>
      <trkpt lat="45.35649" lon="4.34816">
        <ele>894.1</ele>
        <time>2012-04-09T09:16:40.574Z</time>
      </trkpt>
      <trkpt lat="45.35649" lon="4.34816">
        <ele>894.1</ele>
        <time>2012-04-09T09:16:40.574Z</time>
      </trkpt>
      <trkpt lat="45.35602" lon="4.34706">
        <ele>887.7</ele>
        <time>2012-04-09T09:16:40.574Z</time>
      </trkpt>
      <trkpt lat="45.35566" lon="4.34704">
        <ele>889.6</ele>
        <time>2012-04-09T09:16:40.574Z</time>
      </trkpt>
      <trkpt lat="45.3545" lon="4.34652">
        <ele>890.8</ele>
        <time>2012-04-09T09:16:40.574Z</time>
      </trkpt>
      <trkpt lat="45.35413" lon="4.3459">
        <ele>889.2</ele>
        <time>2012-04-09T09:16:40.574Z</time>
      </trkpt>
      <trkpt lat="45.3536" lon="4.34499">
        <ele>885.7</ele>
        <time>2012-04-09T09:16:40.574Z</time>
      </trkpt>
      <trkpt lat="45.3533" lon="4.34438">
        <ele>883.4</ele>
        <time>2012-04-09T09:16:40.574Z</time>
      </trkpt>
      <trkpt lat="45.35297" lon="4.34398">
        <ele>880.8</ele>
        <time>2012-04-09T09:16:40.574Z</time>
      </trkpt>
      <trkpt lat="45.35263" lon="4.34279">
        <ele>877.2</ele>
        <time>2012-04-09T09:16:40.574Z</time>
      </trkpt>
      <trkpt lat="45.35247" lon="4.34192">
        <ele>873.7</ele>
        <time>2012-04-09T09:16:40.575Z</time>
      </trkpt>
      <trkpt lat="45.35228" lon="4.34112">
        <ele>870.4</ele>
        <time>2012-04-09T09:16:40.575Z</time>
      </trkpt>
      <trkpt lat="45.35213" lon="4.34079">
        <ele>868.5</ele>
        <time>2012-04-09T09:16:40.575Z</time>
      </trkpt>
      <trkpt lat="45.35171" lon="4.34154">
        <ele>868.9</ele>
        <time>2012-04-09T09:16:40.575Z</time>
      </trkpt>
      <trkpt lat="45.35136" lon="4.34242">
        <ele>867.3</ele>
        <time>2012-04-09T09:16:40.575Z</time>
      </trkpt>
      <trkpt lat="45.3503" lon="4.34376">
        <ele>861.4</ele>
        <time>2012-04-09T09:16:40.575Z</time>
      </trkpt>
      <trkpt lat="45.35004" lon="4.3441">
        <ele>860.3</ele>
        <time>2012-04-09T09:16:40.575Z</time>
      </trkpt>
      <trkpt lat="45.34985" lon="4.34495">
        <ele>857.9</ele>
        <time>2012-04-09T09:16:40.575Z</time>
      </trkpt>
      <trkpt lat="45.34949" lon="4.34599">
        <ele>856</ele>
        <time>2012-04-09T09:16:40.575Z</time>
      </trkpt>
      <trkpt lat="45.3492" lon="4.34688">
        <ele>856.1</ele>
        <time>2012-04-09T09:16:40.575Z</time>
      </trkpt>
      <trkpt lat="45.349" lon="4.34814">
        <ele>858.7</ele>
        <time>2012-04-09T09:16:40.575Z</time>
      </trkpt>
      <trkpt lat="45.34892" lon="4.34903">
        <ele>859.6</ele>
        <time>2012-04-09T09:16:40.575Z</time>
      </trkpt>
      <trkpt lat="45.34867" lon="4.34931">
        <ele>859.2</ele>
        <time>2012-04-09T09:16:40.575Z</time>
      </trkpt>
      <trkpt lat="45.34844" lon="4.34911">
        <ele>858.8</ele>
        <time>2012-04-09T09:16:40.575Z</time>
      </trkpt>
      <trkpt lat="45.34824" lon="4.34904">
        <ele>858.9</ele>
        <time>2012-04-09T09:16:40.575Z</time>
      </trkpt>
      <trkpt lat="45.34772" lon="4.34925">
        <ele>861</ele>
        <time>2012-04-09T09:16:40.575Z</time>
      </trkpt>
      <trkpt lat="45.34658" lon="4.35048">
        <ele>866.4</ele>
        <time>2012-04-09T09:16:40.575Z</time>
      </trkpt>
      <trkpt lat="45.34556" lon="4.35169">
        <ele>874.1</ele>
        <time>2012-04-09T09:16:40.575Z</time>
      </trkpt>
      <trkpt lat="45.3449" lon="4.35246">
        <ele>879.5</ele>
        <time>2012-04-09T09:16:40.575Z</time>
      </trkpt>
      <trkpt lat="45.34467" lon="4.35268">
        <ele>881.1</ele>
        <time>2012-04-09T09:16:40.575Z</time>
      </trkpt>
      <trkpt lat="45.3443" lon="4.3534">
        <ele>885.9</ele>
        <time>2012-04-09T09:16:40.575Z</time>
      </trkpt>
      <trkpt lat="45.34373" lon="4.35373">
        <ele>890.4</ele>
        <time>2012-04-09T09:16:40.575Z</time>
      </trkpt>
      <trkpt lat="45.34299" lon="4.35462">
        <ele>897.6</ele>
        <time>2012-04-09T09:16:40.575Z</time>
      </trkpt>
      <trkpt lat="45.34245" lon="4.35486">
        <ele>901.4</ele>
        <time>2012-04-09T09:16:40.575Z</time>
      </trkpt>
      <trkpt lat="45.34186" lon="4.35513">
        <ele>903.9</ele>
        <time>2012-04-09T09:16:40.575Z</time>
      </trkpt>
      <trkpt lat="45.34125" lon="4.3552">
        <ele>906.8</ele>
        <time>2012-04-09T09:16:40.575Z</time>
      </trkpt>
      <trkpt lat="45.34036" lon="4.3559">
        <ele>908.7</ele>
        <time>2012-04-09T09:16:40.575Z</time>
      </trkpt>
      <trkpt lat="45.3404" lon="4.35712">
        <ele>908.9</ele>
        <time>2012-04-09T09:16:40.575Z</time>
      </trkpt>
      <trkpt lat="45.33969" lon="4.35671">
        <ele>909.1</ele>
        <time>2012-04-09T09:16:40.575Z</time>
      </trkpt>
      <trkpt lat="45.33917" lon="4.35707">
        <ele>910.6</ele>
        <time>2012-04-09T09:16:40.575Z</time>
      </trkpt>
      <trkpt lat="45.33863" lon="4.35798">
        <ele>916</ele>
        <time>2012-04-09T09:16:40.575Z</time>
      </trkpt>
      <trkpt lat="45.33814" lon="4.35917">
        <ele>920.8</ele>
        <time>2012-04-09T09:16:40.575Z</time>
      </trkpt>
      <trkpt lat="45.33767" lon="4.36027">
        <ele>922.8</ele>
        <time>2012-04-09T09:16:40.575Z</time>
      </trkpt>
      <trkpt lat="45.33751" lon="4.36052">
        <ele>923.6</ele>
        <time>2012-04-09T09:16:40.575Z</time>
      </trkpt>
      <trkpt lat="45.33741" lon="4.36201">
        <ele>925.1</ele>
        <time>2012-04-09T09:16:40.575Z</time>
      </trkpt>
      <trkpt lat="45.33712" lon="4.36191">
        <ele>924.6</ele>
        <time>2012-04-09T09:16:40.575Z</time>
      </trkpt>
      <trkpt lat="45.33664" lon="4.36141">
        <ele>925.5</ele>
        <time>2012-04-09T09:16:40.575Z</time>
      </trkpt>
      <trkpt lat="45.33629" lon="4.36086">
        <ele>926.7</ele>
        <time>2012-04-09T09:16:40.575Z</time>
      </trkpt>
      <trkpt lat="45.33554" lon="4.35987">
        <ele>921.4</ele>
        <time>2012-04-09T09:16:40.575Z</time>
      </trkpt>
      <trkpt lat="45.33468" lon="4.35892">
        <ele>911.8</ele>
        <time>2012-04-09T09:16:40.575Z</time>
      </trkpt>
      <trkpt lat="45.33424" lon="4.35852">
        <ele>909</ele>
        <time>2012-04-09T09:16:40.575Z</time>
      </trkpt>
      <trkpt lat="45.33364" lon="4.35802">
        <ele>908</ele>
        <time>2012-04-09T09:16:40.575Z</time>
      </trkpt>
      <trkpt lat="45.33326" lon="4.35752">
        <ele>908.8</ele>
        <time>2012-04-09T09:16:40.575Z</time>
      </trkpt>
      <trkpt lat="45.33298" lon="4.35684">
        <ele>911.3</ele>
        <time>2012-04-09T09:16:40.575Z</time>
      </trkpt>
      <trkpt lat="45.33266" lon="4.35584">
        <ele>915.3</ele>
        <time>2012-04-09T09:16:40.575Z</time>
      </trkpt>
      <trkpt lat="45.33303" lon="4.35535">
        <ele>912.3</ele>
        <time>2012-04-09T09:16:40.575Z</time>
      </trkpt>
      <trkpt lat="45.33336" lon="4.35482">
        <ele>907.3</ele>
        <time>2012-04-09T09:16:40.575Z</time>
      </trkpt>
      <trkpt lat="45.33338" lon="4.35373">
        <ele>905</ele>
        <time>2012-04-09T09:16:40.575Z</time>
      </trkpt>
      <trkpt lat="45.33334" lon="4.35226">
        <ele>903.5</ele>
        <time>2012-04-09T09:16:40.575Z</time>
      </trkpt>
      <trkpt lat="45.33354" lon="4.35109">
        <ele>902.5</ele>
        <time>2012-04-09T09:16:40.575Z</time>
      </trkpt>
      <trkpt lat="45.33379" lon="4.34966">
        <ele>900.1</ele>
        <time>2012-04-09T09:16:40.575Z</time>
      </trkpt>
      <trkpt lat="45.33369" lon="4.34909">
        <ele>895.3</ele>
        <time>2012-04-09T09:16:40.576Z</time>
      </trkpt>
      <trkpt lat="45.33351" lon="4.34867">
        <ele>890.3</ele>
        <time>2012-04-09T09:16:40.576Z</time>
      </trkpt>
      <trkpt lat="45.33341" lon="4.34815">
        <ele>884.9</ele>
        <time>2012-04-09T09:16:40.576Z</time>
      </trkpt>
      <trkpt lat="45.33326" lon="4.34802">
        <ele>882.7</ele>
        <time>2012-04-09T09:16:40.576Z</time>
      </trkpt>
      <trkpt lat="45.33283" lon="4.348">
        <ele>881.1</ele>
        <time>2012-04-09T09:16:40.576Z</time>
      </trkpt>
      <trkpt lat="45.33265" lon="4.348">
        <ele>882</ele>
        <time>2012-04-09T09:16:40.576Z</time>
      </trkpt>
      <trkpt lat="45.33258" lon="4.34656">
        <ele>885</ele>
        <time>2012-04-09T09:16:40.576Z</time>
      </trkpt>
      <trkpt lat="45.3328" lon="4.34475">
        <ele>885.7</ele>
        <time>2012-04-09T09:16:40.576Z</time>
      </trkpt>
      <trkpt lat="45.33274" lon="4.34411">
        <ele>884.9</ele>
        <time>2012-04-09T09:16:40.576Z</time>
      </trkpt>
      <trkpt lat="45.33273" lon="4.34363">
        <ele>883.5</ele>
        <time>2012-04-09T09:16:40.576Z</time>
      </trkpt>
      <trkpt lat="45.3328" lon="4.34229">
        <ele>881.5</ele>
        <time>2012-04-09T09:16:40.576Z</time>
      </trkpt>
      <trkpt lat="45.33306" lon="4.3415">
        <ele>883.9</ele>
        <time>2012-04-09T09:16:40.576Z</time>
      </trkpt>
      <trkpt lat="45.33321" lon="4.34039">
        <ele>891.5</ele>
        <time>2012-04-09T09:16:40.576Z</time>
      </trkpt>
      <trkpt lat="45.33341" lon="4.33938">
        <ele>892.9</ele>
        <time>2012-04-09T09:16:40.576Z</time>
      </trkpt>
      <trkpt lat="45.33361" lon="4.33856">
        <ele>890.8</ele>
        <time>2012-04-09T09:16:40.576Z</time>
      </trkpt>
      <trkpt lat="45.3339" lon="4.33748">
        <ele>886.1</ele>
        <time>2012-04-09T09:16:40.576Z</time>
      </trkpt>
      <trkpt lat="45.3343" lon="4.33613">
        <ele>882.5</ele>
        <time>2012-04-09T09:16:40.576Z</time>
      </trkpt>
      <trkpt lat="45.33435" lon="4.33498">
        <ele>877.3</ele>
        <time>2012-04-09T09:16:40.576Z</time>
      </trkpt>
      <trkpt lat="45.33436" lon="4.33422">
        <ele>874.1</ele>
        <time>2012-04-09T09:16:40.576Z</time>
      </trkpt>
      <trkpt lat="45.3343" lon="4.3338">
        <ele>872</ele>
        <time>2012-04-09T09:16:40.576Z</time>
      </trkpt>
      <trkpt lat="45.33385" lon="4.33366">
        <ele>870.4</ele>
        <time>2012-04-09T09:16:40.576Z</time>
      </trkpt>
      <trkpt lat="45.33334" lon="4.33341">
        <ele>868.2</ele>
        <time>2012-04-09T09:16:40.576Z</time>
      </trkpt>
      <trkpt lat="45.33265" lon="4.33316">
        <ele>865.5</ele>
        <time>2012-04-09T09:16:40.576Z</time>
      </trkpt>
      <trkpt lat="45.33166" lon="4.33447">
        <ele>864.1</ele>
        <time>2012-04-09T09:16:40.576Z</time>
      </trkpt>
      <trkpt lat="45.33108" lon="4.33509">
        <ele>862.6</ele>
        <time>2012-04-09T09:16:40.576Z</time>
      </trkpt>
      <trkpt lat="45.33094" lon="4.3354">
        <ele>862.9</ele>
        <time>2012-04-09T09:16:40.576Z</time>
      </trkpt>
      <trkpt lat="45.331" lon="4.33601">
        <ele>866.4</ele>
        <time>2012-04-09T09:16:40.576Z</time>
      </trkpt>
      <trkpt lat="45.33054" lon="4.33637">
        <ele>869.4</ele>
        <time>2012-04-09T09:16:40.576Z</time>
      </trkpt>
      <trkpt lat="45.33006" lon="4.337">
        <ele>873</ele>
        <time>2012-04-09T09:16:40.576Z</time>
      </trkpt>
      <trkpt lat="45.32982" lon="4.33743">
        <ele>875.7</ele>
        <time>2012-04-09T09:16:40.576Z</time>
      </trkpt>
      <trkpt lat="45.32921" lon="4.33786">
        <ele>876.4</ele>
        <time>2012-04-09T09:16:40.576Z</time>
      </trkpt>
      <trkpt lat="45.32902" lon="4.33826">
        <ele>878.2</ele>
        <time>2012-04-09T09:16:40.576Z</time>
      </trkpt>
      <trkpt lat="45.32857" lon="4.33828">
        <ele>878.3</ele>
        <time>2012-04-09T09:16:40.576Z</time>
      </trkpt>
      <trkpt lat="45.32803" lon="4.33842">
        <ele>880.4</ele>
        <time>2012-04-09T09:16:40.576Z</time>
      </trkpt>
      <trkpt lat="45.32755" lon="4.33882">
        <ele>884.5</ele>
        <time>2012-04-09T09:16:40.576Z</time>
      </trkpt>
      <trkpt lat="45.32718" lon="4.33916">
        <ele>887.4</ele>
        <time>2012-04-09T09:16:40.576Z</time>
      </trkpt>
      <trkpt lat="45.32702" lon="4.33931">
        <ele>888.5</ele>
        <time>2012-04-09T09:16:40.576Z</time>
      </trkpt>
      <trkpt lat="45.3271" lon="4.33982">
        <ele>888.6</ele>
        <time>2012-04-09T09:16:40.576Z</time>
      </trkpt>
      <trkpt lat="45.32672" lon="4.33965">
        <ele>890.1</ele>
        <time>2012-04-09T09:16:40.576Z</time>
      </trkpt>
      <trkpt lat="45.32617" lon="4.33909">
        <ele>893.5</ele>
        <time>2012-04-09T09:16:40.576Z</time>
      </trkpt>
      <trkpt lat="45.32623" lon="4.33839">
        <ele>896.3</ele>
        <time>2012-04-09T09:16:40.576Z</time>
      </trkpt>
      <trkpt lat="45.32649" lon="4.33763">
        <ele>897.6</ele>
        <time>2012-04-09T09:16:40.576Z</time>
      </trkpt>
      <trkpt lat="45.32658" lon="4.33671">
        <ele>899.6</ele>
        <time>2012-04-09T09:16:40.576Z</time>
      </trkpt>
      <trkpt lat="45.32659" lon="4.33607">
        <ele>899.6</ele>
        <time>2012-04-09T09:16:40.576Z</time>
      </trkpt>
      <trkpt lat="45.32633" lon="4.33546">
        <ele>901.7</ele>
        <time>2012-04-09T09:16:40.576Z</time>
      </trkpt>
      <trkpt lat="45.32606" lon="4.33427">
        <ele>900.5</ele>
        <time>2012-04-09T09:16:40.576Z</time>
      </trkpt>
      <trkpt lat="45.32598" lon="4.33337">
        <ele>896.9</ele>
        <time>2012-04-09T09:16:40.576Z</time>
      </trkpt>
      <trkpt lat="45.32598" lon="4.33219">
        <ele>893.4</ele>
        <time>2012-04-09T09:16:40.576Z</time>
      </trkpt>
      <trkpt lat="45.32596" lon="4.33088">
        <ele>891.6</ele>
        <time>2012-04-09T09:16:40.576Z</time>
      </trkpt>
      <trkpt lat="45.32606" lon="4.33034">
        <ele>890.3</ele>
        <time>2012-04-09T09:16:40.576Z</time>
      </trkpt>
      <trkpt lat="45.32612" lon="4.3292">
        <ele>887.1</ele>
        <time>2012-04-09T09:16:40.576Z</time>
      </trkpt>
      <trkpt lat="45.32626" lon="4.32783">
        <ele>882.5</ele>
        <time>2012-04-09T09:16:40.576Z</time>
      </trkpt>
      <trkpt lat="45.32653" lon="4.32676">
        <ele>879.2</ele>
        <time>2012-04-09T09:16:40.576Z</time>
      </trkpt>
      <trkpt lat="45.3271" lon="4.32646">
        <ele>878.5</ele>
        <time>2012-04-09T09:16:40.577Z</time>
      </trkpt>
      <trkpt lat="45.32696" lon="4.32543">
        <ele>879.5</ele>
        <time>2012-04-09T09:16:40.577Z</time>
      </trkpt>
      <trkpt lat="45.32673" lon="4.32415">
        <ele>872.5</ele>
        <time>2012-04-09T09:16:40.577Z</time>
      </trkpt>
      <trkpt lat="45.32647" lon="4.3236">
        <ele>868</ele>
        <time>2012-04-09T09:16:40.577Z</time>
      </trkpt>
      <trkpt lat="45.32615" lon="4.324">
        <ele>868.5</ele>
        <time>2012-04-09T09:16:40.577Z</time>
      </trkpt>
      <trkpt lat="45.32578" lon="4.32466">
        <ele>871.2</ele>
        <time>2012-04-09T09:16:40.577Z</time>
      </trkpt>
      <trkpt lat="45.32498" lon="4.32508">
        <ele>867.1</ele>
        <time>2012-04-09T09:16:40.577Z</time>
      </trkpt>
      <trkpt lat="45.32414" lon="4.32565">
        <ele>864.7</ele>
        <time>2012-04-09T09:16:40.577Z</time>
      </trkpt>
      <trkpt lat="45.32352" lon="4.3262">
        <ele>862.5</ele>
        <time>2012-04-09T09:16:40.577Z</time>
      </trkpt>
      <trkpt lat="45.32352" lon="4.32652">
        <ele>862.9</ele>
        <time>2012-04-09T09:16:40.577Z</time>
      </trkpt>
      <trkpt lat="45.32368" lon="4.32726">
        <ele>868.5</ele>
        <time>2012-04-09T09:16:40.577Z</time>
      </trkpt>
      <trkpt lat="45.32311" lon="4.32782">
        <ele>865</ele>
        <time>2012-04-09T09:16:40.577Z</time>
      </trkpt>
      <trkpt lat="45.32256" lon="4.32846">
        <ele>871.3</ele>
        <time>2012-04-09T09:16:40.577Z</time>
      </trkpt>
      <trkpt lat="45.32248" lon="4.32894">
        <ele>875.4</ele>
        <time>2012-04-09T09:16:40.577Z</time>
      </trkpt>
      <trkpt lat="45.32222" lon="4.3289">
        <ele>876.6</ele>
        <time>2012-04-09T09:16:40.577Z</time>
      </trkpt>
      <trkpt lat="45.32195" lon="4.32844">
        <ele>876.4</ele>
        <time>2012-04-09T09:16:40.577Z</time>
      </trkpt>
      <trkpt lat="45.32164" lon="4.32824">
        <ele>878.4</ele>
        <time>2012-04-09T09:16:40.577Z</time>
      </trkpt>
      <trkpt lat="45.32088" lon="4.32824">
        <ele>884</ele>
        <time>2012-04-09T09:16:40.577Z</time>
      </trkpt>
      <trkpt lat="45.32061" lon="4.32804">
        <ele>884.9</ele>
        <time>2012-04-09T09:16:40.577Z</time>
      </trkpt>
      <trkpt lat="45.32042" lon="4.32759">
        <ele>884.4</ele>
        <time>2012-04-09T09:16:40.577Z</time>
      </trkpt>
      <trkpt lat="45.32006" lon="4.32732">
        <ele>884.8</ele>
        <time>2012-04-09T09:16:40.577Z</time>
      </trkpt>
      <trkpt lat="45.31945" lon="4.32733">
        <ele>887.3</ele>
        <time>2012-04-09T09:16:40.577Z</time>
      </trkpt>
      <trkpt lat="45.31919" lon="4.32684">
        <ele>886.7</ele>
        <time>2012-04-09T09:16:40.577Z</time>
      </trkpt>
      <trkpt lat="45.31927" lon="4.32516">
        <ele>879.3</ele>
        <time>2012-04-09T09:16:40.577Z</time>
      </trkpt>
      <trkpt lat="45.31921" lon="4.32471">
        <ele>879.4</ele>
        <time>2012-04-09T09:16:40.577Z</time>
      </trkpt>
      <trkpt lat="45.31914" lon="4.32369">
        <ele>882</ele>
        <time>2012-04-09T09:16:40.577Z</time>
      </trkpt>
      <trkpt lat="45.31929" lon="4.32264">
        <ele>879.2</ele>
        <time>2012-04-09T09:16:40.577Z</time>
      </trkpt>
      <trkpt lat="45.31953" lon="4.32172">
        <ele>881.3</ele>
        <time>2012-04-09T09:16:40.577Z</time>
      </trkpt>
      <trkpt lat="45.31938" lon="4.32114">
        <ele>882.7</ele>
        <time>2012-04-09T09:16:40.577Z</time>
      </trkpt>
      <trkpt lat="45.31917" lon="4.32063">
        <ele>882.3</ele>
        <time>2012-04-09T09:16:40.577Z</time>
      </trkpt>
      <trkpt lat="45.31888" lon="4.3203">
        <ele>881.6</ele>
        <time>2012-04-09T09:16:40.577Z</time>
      </trkpt>
      <trkpt lat="45.31862" lon="4.31987">
        <ele>879.9</ele>
        <time>2012-04-09T09:16:40.577Z</time>
      </trkpt>
      <trkpt lat="45.31863" lon="4.31933">
        <ele>878.5</ele>
        <time>2012-04-09T09:16:40.577Z</time>
      </trkpt>
      <trkpt lat="45.31857" lon="4.31879">
        <ele>878.6</ele>
        <time>2012-04-09T09:16:40.577Z</time>
      </trkpt>
      <trkpt lat="45.31858" lon="4.31837">
        <ele>877.3</ele>
        <time>2012-04-09T09:16:40.577Z</time>
      </trkpt>
      <trkpt lat="45.31865" lon="4.31802">
        <ele>876.8</ele>
        <time>2012-04-09T09:16:40.577Z</time>
      </trkpt>
      <trkpt lat="45.31889" lon="4.31752">
        <ele>875.4</ele>
        <time>2012-04-09T09:16:40.577Z</time>
      </trkpt>
      <trkpt lat="45.31867" lon="4.31726">
        <ele>877.4</ele>
        <time>2012-04-09T09:16:40.577Z</time>
      </trkpt>
      <trkpt lat="45.31817" lon="4.31724">
        <ele>882.2</ele>
        <time>2012-04-09T09:16:40.577Z</time>
      </trkpt>
      <trkpt lat="45.31759" lon="4.31713">
        <ele>886</ele>
        <time>2012-04-09T09:16:40.577Z</time>
      </trkpt>
      <trkpt lat="45.31744" lon="4.31683">
        <ele>887</ele>
        <time>2012-04-09T09:16:40.577Z</time>
      </trkpt>
      <trkpt lat="45.31729" lon="4.31616">
        <ele>886.2</ele>
        <time>2012-04-09T09:16:40.577Z</time>
      </trkpt>
      <trkpt lat="45.31706" lon="4.31532">
        <ele>884.6</ele>
        <time>2012-04-09T09:16:40.577Z</time>
      </trkpt>
      <trkpt lat="45.31714" lon="4.31485">
        <ele>882.8</ele>
        <time>2012-04-09T09:16:40.577Z</time>
      </trkpt>
      <trkpt lat="45.31733" lon="4.31415">
        <ele>881.2</ele>
        <time>2012-04-09T09:16:40.577Z</time>
      </trkpt>
      <trkpt lat="45.31729" lon="4.3137">
        <ele>881</ele>
        <time>2012-04-09T09:16:40.577Z</time>
      </trkpt>
      <trkpt lat="45.3172" lon="4.31274">
        <ele>879.5</ele>
        <time>2012-04-09T09:16:40.577Z</time>
      </trkpt>
      <trkpt lat="45.3167" lon="4.31298">
        <ele>884.3</ele>
        <time>2012-04-09T09:16:40.577Z</time>
      </trkpt>
      <trkpt lat="45.3161" lon="4.31382">
        <ele>889.7</ele>
        <time>2012-04-09T09:16:40.577Z</time>
      </trkpt>
      <trkpt lat="45.31552" lon="4.31463">
        <ele>896.2</ele>
        <time>2012-04-09T09:16:40.577Z</time>
      </trkpt>
      <trkpt lat="45.31512" lon="4.31541">
        <ele>900.8</ele>
        <time>2012-04-09T09:16:40.577Z</time>
      </trkpt>
      <trkpt lat="45.31464" lon="4.31597">
        <ele>904.4</ele>
        <time>2012-04-09T09:16:40.577Z</time>
      </trkpt>
      <trkpt lat="45.31431" lon="4.31672">
        <ele>906.4</ele>
        <time>2012-04-09T09:16:40.578Z</time>
      </trkpt>
      <trkpt lat="45.31406" lon="4.31726">
        <ele>907.1</ele>
        <time>2012-04-09T09:16:40.578Z</time>
      </trkpt>
      <trkpt lat="45.31375" lon="4.31782">
        <ele>908.9</ele>
        <time>2012-04-09T09:16:40.578Z</time>
      </trkpt>
      <trkpt lat="45.31332" lon="4.31803">
        <ele>910.6</ele>
        <time>2012-04-09T09:16:40.578Z</time>
      </trkpt>
    </trkseg>
  </trk>
</gpx>